QPF
0.00 0.00 0.00 0.00 0.00 0.00 0.00 0.00 0.00 0.00 0.00 0.00 0.00 0.00 0.00 0.00 0.00 0.00 0.00 0.00 0.00 0.00 0.00 0.00 0.00 0.00 0.01 0.00 0.00 0.00 0.01 0.01 0.00 0.00 0.00 0.00 0.00 0.00 0.00 0.00 0.00 0.00 0.00 0.00
0.00 0.00 0.00 0.00 0.00 0.00 0.00 0.00 0.00 0.00 0.00 0.00 0.00 0.00 0.00 0.00 0.00 0.00 0.00 0.00 0.00 0.00 0.00 0.00 0.01 0.01 0.01 0.00 0.00 0.00 0.00 0.00 0.00 0.00 0.00 0.00 0.00 0.00 0.00 0.00 0.00 0.00 0.00 0.00
0.00 0.00 0.00 0.00 0.00 0.00 0.00 0.00 0.00 0.00 0.00 0.00 0.00 0.00 0.00 0.00 0.00 0.00 0.00 0.00 0.00 0.00 0.00 0.00 0.00 0.00 0.00 0.00 0.00 0.00 0.00 0.00 0.00 0.00 0.00 0.00 0.00 0.00 0.00 0.00 0.00 0.00 0.00 0.00
0.00 0.00 0.00 0.00 0.00 0.00 0.00 0.00 0.00 0.00 0.00 0.00 0.00 0.00 0.00 0.00 0.00 0.00 0.00 0.00 0.00 0.00 0.00 0.00 0.00 0.00 0.00 0.00 0.00 0.00 0.00 0.00 0.00 0.00 0.00 0.00 0.00 0.00 0.00 0.00 0.00 0.00 0.00 0.00
0.00 0.00 0.00 0.00 0.00 0.00 0.00 0.00 0.00 0.00 0.00 0.00 0.00 0.00 0.00 0.00 0.00 0.00 0.00 0.00 0.00 0.00 0.00 0.00 0.00 0.00 0.00 0.00 0.00 0.00 0.00 0.00 0.00 0.00 0.00 0.00 0.00 0.00 0.00 0.00 0.00 0.00 0.00 0.00
0.00 0.00 0.00 0.00 0.00 0.00 0.00 0.00 0.00 0.00 0.00 0.00 0.00 0.01 0.00 0.00 0.00 0.00 0.00 0.00 0.00 0.00 0.00 0.00 0.00 0.00 0.00 0.00 0.00 0.00 0.00 0.00 0.00 0.00 0.00 0.00 0.00 0.00 0.00 0.00 0.00 0.00 0.00 0.00
0.00 0.00 0.00 0.00 0.00 0.00 0.00 0.00 0.00 0.01 0.02 0.01 0.03 0.03 0.02 0.00 0.00 0.00 0.00 0.00 0.00 0.00 0.00 0.00 0.00 0.00 0.00 0.00 0.00 0.00 0.00 0.00 0.00 0.00 0.00 0.00 0.00 0.00 0.00 0.00 0.00 0.00 0.00 0.00
0.00 0.00 0.00 0.00 0.00 0.00 0.00 0.00 0.00 0.00 0.00 0.01 0.01 0.00 0.00 0.00 0.00 0.00 0.00 0.00 0.00 0.00 0.00 0.00 0.00 0.00 0.00 0.00 0.00 0.00 0.00 0.00 0.00 0.00 0.00 0.00 0.00 0.00 0.00 0.00 0.00 0.00 0.00 0.00
0.00 0.00 0.00 0.00 0.00 0.00 0.00 0.00 0.00 0.00 0.00 0.00 0.00 0.00 0.00 0.00 0.00 0.00 0.00 0.00 0.00 0.00 0.00 0.00 0.00 0.00 0.00 0.00 0.00 0.00 0.00 0.00 0.00 0.00 0.00 0.00 0.00 0.00 0.00 0.00 0.00 0.00 0.00 0.00
0.00 0.00 0.00 0.00 0.00 0.00 0.00 0.00 0.00 0.00 0.00 0.00 0.00 0.00 0.00 0.00 0.00 0.00 0.00 0.00 0.00 0.00 0.00 0.00 0.00 0.00 0.00 0.00 0.00 0.00 0.00 0.00 0.00 0.00 0.00 0.00 0.00 0.00 0.00 0.00 0.00 0.00 0.00 0.00
0.00 0.00 0.00 0.00 0.00 0.00 0.00 0.00 0.00 0.00 0.00 0.00 0.00 0.00 0.00 0.00 0.00 0.00 0.00 0.00 0.00 0.00 0.00 0.00 0.00 0.00 0.00 0.00 0.00 0.00 0.00 0.00 0.00 0.00 0.00 0.00 0.00 0.00 0.00 0.00 0.00 0.00 0.00 0.00
0.00 0.00 0.00 0.00 0.00 0.00 0.00 0.00 0.00 0.00 0.00 0.00 0.00 0.00 0.00 0.00 0.00 0.00 0.00 0.00 0.00 0.00 0.00 0.00 0.00 0.00 0.00 0.00 0.00 0.00 0.00 0.00 0.00 0.00 0.00 0.00 0.00 0.00 0.00 0.00 0.00 0.00 0.00 0.00
0.00 0.00 0.00 0.00 0.00 0.00 0.00 0.00 0.00 0.00 0.00 0.00 0.00 0.00 0.00 0.00 0.00 0.00 0.00 0.00 0.00 0.00 0.00 0.00 0.00 0.00 0.00 0.00 0.00 0.00 0.00 0.00 0.00 0.00 0.00 0.00 0.00 0.00 0.00 0.00 0.00 0.00 0.00 0.00
0.00 0.00 0.00 0.00 0.00 0.00 0.00 0.00 0.00 0.00 0.00 0.00 0.00 0.00 0.00 0.00 0.00 0.00 0.00 0.00 0.00 0.00 0.00 0.00 0.00 0.00 0.00 0.00 0.00 0.00 0.00 0.00 0.00 0.00 0.00 0.00 0.00 0.00 0.00 0.00 0.00 0.00 0.00 0.00
0.00 0.00 0.00 0.00 0.00 0.00 0.00 0.00 0.00 0.00 0.00 0.00 0.00 0.00 0.00 0.00 0.00 0.00 0.00 0.00 0.00 0.00 0.00 0.00 0.00 0.00 0.00 0.00 0.00 0.00 0.00 0.00 0.00 0.00 0.00 0.00 0.00 0.00 0.00 0.00 0.00 0.00 0.00 0.00
0.00 0.00 0.00 0.00 0.00 0.00 0.00 0.00 0.00 0.00 0.00 0.00 0.00 0.00 0.00 0.00 0.00 0.00 0.00 0.00 0.00 0.00 0.00 0.00 0.00 0.00 0.00 0.00 0.00 0.00 0.00 0.00 0.00 0.00 0.00 0.00 0.00 0.00 0.00 0.00 0.00 0.00 0.00 0.00
0.00 0.00 0.00 0.00 0.00 0.00 0.00 0.00 0.00 0.00 0.00 0.00 0.00 0.00 0.00 0.00 0.00 0.00 0.00 0.00 0.00 0.00 0.00 0.00 0.00 0.00 0.00 0.00 0.00 0.00 0.00 0.00 0.00 0.00 0.00 0.01 0.00 0.00 0.00 0.00 0.00 0.00 0.00 0.00
0.00 0.00 0.00 0.00 0.00 0.00 0.00 0.00 0.00 0.00 0.00 0.00 0.00 0.00 0.00 0.00 0.00 0.00 0.00 0.00 0.00 0.00 0.00 0.00 0.00 0.00 0.00 0.00 0.00 0.00 0.00 0.00 0.00 0.00 0.01 0.00 0.01 0.00 0.00 0.00 0.00 0.00 0.00 0.00
0.00 0.00 0.00 0.00 0.00 0.00 0.00 0.00 0.00 0.00 0.00 0.00 0.00 0.00 0.00 0.00 0.00 0.00 0.00 0.00 0.00 0.00 0.00 0.00 0.00 0.00 0.00 0.00 0.00 0.00 0.00 0.00 0.00 0.00 0.00 0.00 0.01 0.01 0.01 0.01 0.00 0.00 0.00 0.00
0.00 0.00 0.00 0.00 0.00 0.00 0.00 0.00 0.00 0.00 0.00 0.00 0.00 0.00 0.00 0.00 0.00 0.00 0.00 0.00 0.00 0.00 0.00 0.00 0.00 0.00 0.00 0.00 0.00 0.00 0.00 0.00 0.00 0.00 0.00 0.00 0.00 0.02 0.02 0.02 0.01 0.01 0.00 0.00
0.00 0.00 0.00 0.00 0.00 0.00 0.00 0.00 0.00 0.00 0.00 0.00 0.00 0.00 0.00 0.00 0.00 0.00 0.00 0.00 0.00 0.00 0.00 0.00 0.00 0.00 0.00 0.00 0.00 0.00 0.00 0.00 0.00 0.00 0.00 0.00 0.00 0.01 0.02 0.01 0.00 0.00 0.00 0.00
0.00 0.00 0.00 0.00 0.00 0.00 0.00 0.00 0.00 0.00 0.00 0.00 0.00 0.00 0.00 0.00 0.00 0.00 0.00 0.00 0.00 0.00 0.00 0.00 0.00 0.00 0.00 0.00 0.00 0.00 0.00 0.00 0.00 0.00 0.00 0.00 0.00 0.01 0.00 0.00 0.00 0.00 0.00 0.00
0.00 0.00 0.00 0.00 0.00 0.00 0.00 0.00 0.00 0.00 0.00 0.00 0.00 0.00 0.00 0.00 0.00 0.00 0.00 0.00 0.00 0.00 0.00 0.00 0.00 0.00 0.00 0.00 0.00 0.00 0.00 0.00 0.00 0.00 0.00 0.00 0.00 0.00 0.00 0.00 0.00 0.00 0.00 0.00
0.00 0.00 0.00 0.00 0.00 0.00 0.00 0.00 0.00 0.00 0.00 0.00 0.00 0.00 0.00 0.00 0.00 0.00 0.00 0.00 0.00 0.00 0.00 0.00 0.00 0.00 0.00 0.00 0.00 0.00 0.00 0.00 0.00 0.00 0.00 0.00 0.00 0.00 0.00 0.00 0.00 0.00 0.00 0.00
0.00 0.00 0.00 0.00 0.00 0.00 0.00 0.00 0.00 0.00 0.00 0.00 0.00 0.00 0.00 0.00 0.00 0.00 0.00 0.00 0.00 0.00 0.00 0.00 0.00 0.00 0.00 0.00 0.00 0.00 0.00 0.00 0.00 0.00 0.00 0.00 0.00 0.00 0.00 0.00 0.00 0.00 0.00 0.00
0.00 0.00 0.00 0.00 0.00 0.00 0.00 0.00 0.00 0.00 0.00 0.00 0.00 0.00 0.00 0.00 0.00 0.00 0.00 0.00 0.00 0.00 0.00 0.00 0.00 0.00 0.00 0.00 0.00 0.00 0.00 0.00 0.00 0.00 0.00 0.00 0.00 0.00 0.00 0.00 0.00 0.00 0.00 0.00
MSLP
1009.00 1009.87 1010.02 1010.04 1009.89 1009.92 1010.06 1010.11 1010.59 1010.90 1010.80 1010.97 1011.43 1011.95 1012.17 1012.26 1012.24 1012.85 1014.02 1014.82 1015.85 1016.34 1016.96 1016.95 1017.22 1017.07 1017.24 1017.66 1017.91 1018.26 1018.33 1018.61 1018.76 1019.06 1019.50 1019.80 1020.18 1019.96 1019.86 1019.88 1019.82 1019.85 1020.16 1020.33
1009.72 1010.29 1010.11 1010.01 1010.14 1010.26 1010.25 1010.69 1011.38 1011.43 1011.25 1011.44 1012.09 1012.77 1012.82 1012.95 1013.61 1013.82 1014.93 1015.90 1016.44 1016.98 1017.51 1017.95 1018.31 1018.39 1018.63 1018.81 1019.07 1019.14 1019.26 1019.57 1019.88 1019.88 1020.06 1020.09 1020.26 1020.04 1020.24 1020.40 1020.59 1020.63 1020.64 1020.64
1010.09 1010.59 1010.29 1010.19 1010.49 1010.84 1011.30 1011.66 1012.01 1012.24 1012.12 1012.19 1012.60 1013.71 1013.57 1013.81 1013.98 1014.49 1015.58 1016.49 1017.04 1017.69 1018.33 1018.81 1019.24 1019.62 1019.64 1019.82 1019.97 1019.92 1019.92 1020.20 1020.34 1020.44 1020.44 1020.46 1020.48 1020.70 1020.97 1021.10 1021.16 1021.19 1021.25 1021.22
1010.65 1010.66 1010.60 1010.57 1011.11 1011.55 1011.91 1012.29 1012.63 1013.04 1013.47 1013.52 1013.19 1014.52 1014.38 1014.30 1014.88 1015.39 1016.41 1017.11 1017.76 1018.24 1018.80 1019.29 1019.92 1020.45 1020.57 1020.59 1020.42 1020.29 1020.35 1020.39 1020.53 1020.67 1020.92 1021.33 1021.77 1021.98 1021.96 1021.78 1021.63 1021.56 1021.47 1021.45
1011.16 1011.13 1011.24 1011.34 1011.89 1012.09 1012.67 1012.84 1013.26 1013.76 1014.35 1014.60 1014.00 1014.56 1014.92 1014.84 1015.67 1016.26 1016.89 1017.50 1018.15 1018.61 1019.17 1019.78 1020.15 1020.56 1020.66 1020.76 1020.74 1020.50 1020.68 1020.89 1020.89 1020.90 1021.03 1021.36 1021.65 1021.64 1021.70 1021.92 1022.16 1022.27 1022.10 1021.90
1011.48 1011.55 1012.01 1012.19 1012.13 1012.26 1012.66 1013.21 1013.63 1014.30 1015.13 1015.69 1015.25 1014.99 1015.74 1015.30 1015.73 1016.52 1017.04 1017.70 1018.50 1018.88 1019.41 1019.74 1020.22 1020.58 1020.73 1020.72 1020.70 1020.75 1020.89 1020.94 1021.12 1021.33 1021.44 1021.66 1022.00 1022.10 1022.31 1022.45 1022.59 1022.53 1022.39 1022.24
1012.21 1012.41 1012.46 1012.38 1012.38 1012.54 1013.11 1013.85 1014.98 1016.21 1016.89 1017.01 1015.86 1015.82 1016.49 1015.65 1015.50 1016.13 1017.19 1018.02 1018.67 1019.21 1019.74 1020.11 1020.33 1020.66 1020.90 1020.79 1020.92 1021.03 1020.98 1021.07 1021.22 1021.45 1021.72 1022.01 1022.25 1022.47 1022.68 1022.78 1022.74 1022.77 1022.59 1022.44
1012.78 1013.42 1013.06 1013.01 1013.18 1013.51 1013.74 1014.57 1016.25 1017.75 1018.88 1018.38 1016.79 1016.93 1017.60 1016.78 1016.82 1017.27 1017.79 1018.26 1018.76 1019.31 1019.62 1019.89 1020.00 1020.31 1020.73 1020.88 1020.95 1020.97 1021.11 1021.32 1021.59 1021.72 1021.91 1022.10 1022.16 1022.38 1022.63 1022.74 1022.68 1022.60 1022.52 1022.55
1013.47 1014.08 1013.88 1013.70 1013.62 1013.77 1014.23 1015.25 1016.21 1017.88 1019.41 1019.98 1018.67 1018.43 1017.76 1017.29 1017.48 1018.07 1018.24 1018.69 1019.15 1019.40 1019.54 1019.96 1020.18 1020.51 1020.83 1020.95 1021.12 1021.25 1021.29 1021.41 1021.64 1021.97 1022.02 1022.24 1022.40 1022.39 1022.48 1022.50 1022.49 1022.72 1022.90 1022.59
1014.07 1014.49 1014.31 1014.16 1014.06 1014.14 1014.49 1015.45 1016.71 1018.48 1020.53 1020.99 1019.83 1019.01 1018.20 1017.85 1017.86 1018.22 1018.71 1019.05 1019.40 1019.73 1020.02 1020.42 1020.62 1020.75 1020.79 1020.88 1021.08 1021.16 1021.25 1021.62 1021.94 1022.09 1022.16 1022.27 1022.29 1022.36 1022.57 1022.66 1022.86 1022.97 1023.01 1022.77
1014.77 1014.99 1015.34 1014.82 1015.04 1015.05 1015.25 1015.94 1017.19 1018.80 1020.76 1021.79 1021.41 1020.13 1018.19 1018.24 1018.24 1018.65 1019.19 1019.41 1019.67 1019.97 1020.47 1020.87 1021.00 1021.14 1021.12 1021.19 1021.41 1021.50 1021.68 1021.86 1021.94 1021.84 1021.93 1022.08 1022.39 1022.50 1022.62 1022.75 1022.80 1022.73 1022.69 1022.52
1015.76 1016.19 1016.47 1016.28 1015.79 1015.46 1015.69 1016.50 1017.81 1020.11 1021.64 1022.43 1022.10 1020.45 1018.70 1018.67 1018.63 1018.92 1019.29 1019.36 1019.78 1020.26 1020.68 1020.86 1021.23 1021.64 1021.90 1021.80 1021.51 1021.70 1021.83 1021.85 1021.81 1021.74 1021.88 1021.93 1022.10 1022.13 1022.09 1022.14 1022.18 1021.95 1022.36 1022.21
1016.61 1016.99 1017.59 1017.47 1017.04 1016.42 1016.42 1016.92 1018.01 1019.80 1021.35 1022.52 1022.70 1020.98 1018.90 1018.87 1019.04 1019.34 1019.84 1020.36 1020.75 1020.94 1021.40 1021.98 1022.25 1022.44 1022.35 1022.10 1021.85 1021.76 1021.73 1021.80 1021.62 1021.50 1021.53 1021.56 1021.52 1021.60 1021.48 1021.55 1021.53 1021.59 1021.80 1021.83
1017.08 1017.50 1018.29 1018.42 1018.01 1017.54 1017.43 1017.62 1018.14 1019.42 1021.09 1021.64 1021.34 1020.35 1019.35 1019.63 1019.74 1020.54 1020.64 1020.85 1021.31 1021.79 1022.36 1022.75 1022.83 1022.70 1022.39 1022.08 1021.84 1021.69 1021.70 1021.43 1021.22 1021.10 1021.24 1021.35 1021.17 1020.97 1020.94 1021.05 1021.22 1021.18 1021.19 1021.34
1017.92 1018.94 1019.32 1019.29 1018.92 1018.50 1018.18 1018.17 1018.50 1019.00 1019.54 1020.25 1020.15 1019.94 1019.67 1020.19 1020.91 1021.21 1021.46 1021.77 1022.17 1022.54 1022.93 1023.12 1022.99 1022.64 1022.36 1022.12 1021.84 1021.62 1021.43 1020.95 1020.57 1020.88 1020.82 1020.77 1020.45 1020.42 1020.37 1020.47 1020.42 1020.80 1020.59 1020.90
1018.81 1020.24 1020.88 1021.00 1020.40 1019.88 1019.24 1018.72 1018.45 1018.49 1018.76 1019.12 1019.59 1019.91 1019.99 1020.76 1021.13 1021.76 1022.36 1022.70 1023.06 1023.24 1023.11 1022.87 1022.75 1022.45 1022.19 1021.95 1021.68 1021.51 1021.31 1021.11 1020.94 1020.76 1020.42 1020.27 1020.47 1020.50 1020.61 1020.38 1020.51 1020.72 1020.12 1020.40
1020.11 1021.66 1022.72 1022.88 1022.16 1021.26 1020.26 1018.79 1018.28 1018.16 1018.52 1019.01 1019.80 1020.34 1020.66 1021.32 1021.81 1022.59 1023.10 1023.40 1023.65 1023.43 1023.13 1022.95 1022.60 1022.31 1022.09 1021.83 1021.59 1021.64 1021.52 1021.26 1021.09 1020.96 1020.96 1021.35 1020.92 1020.97 1020.92 1020.88 1021.31 1020.49 1020.41 1020.22
1021.08 1022.61 1023.85 1024.87 1023.78 1022.54 1019.70 1018.51 1018.04 1018.35 1018.97 1019.38 1020.28 1021.06 1021.55 1022.11 1022.72 1023.15 1023.50 1023.66 1023.47 1023.24 1023.10 1022.88 1022.59 1022.27 1021.78 1021.68 1021.74 1021.62 1021.53 1021.45 1021.24 1021.23 1021.04 1020.94 1021.04 1021.05 1021.24 1020.91 1020.63 1020.67 1020.42 1020.10
1021.26 1023.17 1025.39 1025.94 1025.30 1022.87 1019.95 1018.72 1018.53 1018.89 1020.23 1020.52 1021.07 1021.79 1022.31 1022.61 1022.86 1023.39 1023.57 1023.41 1023.35 1023.26 1022.95 1022.73 1022.51 1022.37 1022.21 1022.08 1021.97 1021.86 1021.68 1021.45 1021.23 1021.24 1021.13 1020.95 1020.84 1020.69 1020.37 1020.94 1020.81 1021.13 1020.74 1020.36
1022.61 1023.59 1025.08 1026.38 1026.08 1023.84 1020.52 1019.15 1018.76 1019.15 1020.69 1021.28 1021.55 1022.23 1022.60 1022.61 1023.46 1023.78 1023.32 1023.15 1023.07 1022.93 1022.75 1022.84 1022.73 1022.59 1022.44 1022.36 1022.10 1021.83 1021.48 1021.31 1021.35 1021.44 1021.43 1021.20 1020.87 1020.81 1020.73 1020.64 1020.46 1020.61 1020.26 1020.37
1023.93 1024.69 1025.54 1025.84 1025.42 1022.85 1020.12 1019.33 1019.11 1020.30 1021.26 1021.53 1021.80 1022.29 1022.77 1023.39 1023.72 1023.54 1023.32 1023.04 1022.77 1022.75 1022.90 1022.79 1022.64 1022.72 1022.57 1022.21 1021.91 1021.67 1021.52 1021.64 1021.66 1021.46 1021.30 1021.20 1021.16 1020.93 1020.77 1020.87 1020.72 1020.42 1020.46 1021.06
1023.09 1024.26 1024.92 1024.99 1024.23 1021.84 1019.38 1019.31 1019.94 1020.47 1020.92 1021.49 1022.05 1022.46 1022.67 1023.02 1022.99 1023.02 1022.95 1022.90 1022.90 1022.90 1022.81 1022.64 1022.70 1022.74 1022.36 1022.03 1021.82 1021.78 1021.85 1021.88 1021.66 1021.55 1021.42 1021.32 1021.06 1020.83 1020.83 1020.94 1020.91 1020.61 1021.03 1021.41
1021.63 1021.19 1021.87 1022.47 1021.26 1019.57 1019.17 1019.18 1019.64 1020.12 1021.05 1021.68 1021.92 1022.01 1022.29 1022.74 1022.87 1022.81 1022.93 1023.02 1022.91 1022.86 1022.79 1022.72 1022.87 1022.54 1022.18 1022.25 1022.11 1022.20 1022.26 1022.02 1021.83 1021.69 1021.65 1021.47 1021.20 1020.83 1020.56 1020.69 1020.90 1021.15 1021.35 1021.54
1019.48 1019.31 1019.96 1020.19 1019.44 1019.18 1019.34 1019.78 1020.10 1020.48 1021.00 1021.40 1021.62 1021.80 1021.92 1022.45 1022.69 1022.95 1023.08 1023.20 1023.25 1023.23 1023.24 1023.00 1022.77 1022.67 1022.50 1022.29 1022.31 1022.30 1022.12 1022.02 1021.84 1021.87 1021.89 1021.82 1021.71 1021.28 1021.00 1021.08 1021.20 1021.38 1021.55 1021.71
1018.99 1018.61 1018.73 1019.13 1018.99 1019.42 1019.76 1019.72 1019.99 1020.63 1020.93 1021.28 1021.54 1021.71 1022.00 1022.43 1022.79 1023.14 1023.39 1023.43 1023.45 1023.48 1023.28 1023.09 1022.94 1022.75 1022.55 1022.46 1022.47 1022.28 1022.01 1021.90 1021.97 1022.03 1022.12 1022.15 1022.06 1021.90 1021.63 1021.42 1021.46 1021.53 1021.58 1021.67
1018.14 1017.89 1018.12 1018.32 1018.33 1018.58 1019.47 1020.01 1020.14 1020.45 1020.88 1021.13 1021.54 1021.96 1022.24 1022.75 1023.15 1023.35 1023.56 1023.67 1023.69 1023.53 1023.32 1023.17 1022.99 1022.85 1022.75 1022.59 1022.47 1022.24 1022.19 1022.10 1022.10 1022.16 1022.23 1022.19 1022.16 1022.09 1021.91 1021.73 1021.57 1021.49 1021.42 1021.39
Thickness
5700 5676 5666 5684 5696 5702 5700 5694 5680 5689 5702 5701 5694 5688 5688 5695 5697 5695 5682 5681 5673 5670 5669 5671 5668 5668 5667 5660 5656 5653 5650 5644 5637 5628 5619 5613 5604 5601 5597 5590 5585 5579 5573 5569
5683 5668 5692 5703 5702 5697 5698 5690 5677 5689 5702 5696 5688 5683 5684 5689 5683 5684 5677 5670 5667 5665 5661 5659 5656 5653 5648 5646 5643 5640 5635 5628 5620 5615 5610 5605 5597 5594 5586 5578 5570 5565 5561 5556
5673 5683 5700 5697 5687 5683 5680 5674 5676 5677 5688 5695 5686 5666 5671 5680 5682 5680 5670 5666 5664 5659 5654 5651 5645 5639 5636 5633 5630 5626 5622 5615 5608 5603 5598 5593 5588 5580 5572 5565 5558 5551 5544 5536
5679 5693 5690 5690 5681 5679 5669 5685 5681 5675 5665 5646 5678 5633 5655 5664 5662 5663 5657 5652 5650 5650 5648 5643 5632 5625 5622 5619 5618 5615 5610 5606 5600 5594 5585 5577 5567 5559 5555 5551 5546 5538 5531 5523
5673 5679 5674 5674 5675 5680 5669 5682 5675 5672 5659 5656 5662 5641 5642 5654 5642 5646 5647 5647 5640 5638 5635 5630 5625 5621 5617 5613 5608 5604 5596 5589 5585 5584 5580 5571 5562 5555 5548 5539 5528 5519 5512 5506
5677 5689 5678 5673 5682 5682 5682 5671 5669 5665 5653 5617 5649 5645 5631 5637 5640 5639 5645 5642 5633 5629 5624 5619 5616 5612 5608 5604 5599 5593 5586 5579 5573 5567 5561 5556 5549 5542 5533 5524 5514 5505 5496 5487
5668 5667 5676 5681 5667 5677 5668 5651 5611 5610 5598 5605 5649 5640 5626 5642 5649 5643 5634 5627 5623 5619 5612 5606 5600 5594 5591 5592 5587 5584 5579 5573 5567 5559 5549 5539 5529 5521 5512 5502 5494 5484 5473 5463
5642 5632 5659 5672 5662 5655 5656 5652 5597 5607 5586 5601 5647 5621 5614 5633 5633 5626 5623 5618 5616 5613 5611 5602 5599 5595 5587 5579 5574 5570 5565 5559 5552 5546 5538 5530 5521 5511 5499 5487 5476 5464 5454 5442
5640 5636 5662 5663 5666 5661 5649 5628 5650 5616 5608 5584 5611 5619 5622 5631 5625 5618 5612 5606 5604 5604 5606 5599 5591 5584 5578 5572 5566 5561 5556 5550 5542 5532 5524 5514 5503 5493 5480 5468 5456 5442 5429 5417
5655 5632 5657 5660 5665 5664 5653 5655 5611 5601 5587 5595 5603 5606 5597 5613 5615 5615 5604 5598 5594 5594 5589 5582 5578 5574 5571 5566 5558 5552 5545 5536 5526 5517 5507 5496 5487 5473 5459 5445 5431 5419 5405 5395
5649 5641 5640 5657 5641 5636 5634 5629 5629 5621 5589 5569 5559 5580 5615 5608 5607 5601 5592 5591 5588 5589 5579 5574 5569 5565 5561 5556 5549 5541 5533 5523 5514 5504 5492 5477 5464 5452 5437 5423 5410 5397 5387 5375
5648 5632 5606 5632 5648 5653 5647 5636 5626 5575 5588 5562 5552 5570 5615 5596 5596 5589 5588 5589 5582 5578 5572 5568 5563 5553 5544 5539 5535 5526 5516 5508 5499 5488 5474 5460 5447 5437 5425 5412 5395 5382 5367 5357
5641 5628 5592 5612 5627 5639 5635 5634 5622 5599 5573 5571 5530 5555 5604 5598 5592 5587 5585 5575 5571 5566 5560 5550 5542 5535 5531 5527 5521 5512 5502 5491 5482 5471 5458 5446 5433 5421 5413 5400 5384 5368 5354 5342
5639 5635 5611 5589 5617 5624 5620 5621 5621 5596 5555 5565 5561 5578 5590 5578 5581 5570 5569 5567 5560 5551 5543 5536 5528 5522 5518 5514 5507 5498 5488 5477 5467 5456 5440 5425 5414 5402 5391 5381 5365 5349 5337 5326
5631 5614 5618 5618 5621 5622 5620 5614 5609 5603 5594 5569 5574 5580 5583 5573 5564 5560 5561 5557 5548 5541 5532 5524 5518 5513 5509 5503 5494 5483 5472 5465 5454 5437 5423 5408 5398 5383 5369 5356 5345 5330 5322 5314
5624 5596 5606 5602 5609 5605 5602 5600 5600 5601 5601 5597 5588 5580 5574 5567 5564 5556 5548 5542 5533 5527 5522 5518 5511 5506 5499 5490 5481 5470 5454 5440 5428 5418 5407 5389 5374 5361 5348 5338 5329 5319 5313 5305
5608 5586 5572 5575 5584 5577 5569 5595 5603 5604 5598 5590 5568 5572 5565 5558 5551 5541 5532 5526 5519 5515 5511 5505 5500 5493 5483 5473 5463 5448 5435 5423 5410 5396 5384 5365 5354 5342 5331 5321 5312 5309 5298 5293
5592 5582 5553 5540 5550 5548 5596 5608 5604 5593 5584 5582 5569 5558 5552 5544 5535 5527 5520 5514 5509 5503 5499 5492 5484 5476 5468 5458 5446 5436 5422 5406 5393 5376 5364 5351 5333 5323 5310 5304 5298 5289 5285 5281
5601 5565 5533 5544 5543 5569 5591 5598 5589 5577 5565 5565 5556 5547 5539 5534 5531 5518 5510 5505 5498 5490 5486 5478 5470 5461 5450 5439 5427 5413 5401 5390 5376 5360 5344 5333 5320 5310 5299 5285 5280 5273 5273 5271
5581 5565 5544 5517 5524 5515 5569 5586 5588 5582 5536 5553 5548 5537 5528 5525 5494 5499 5505 5502 5494 5486 5478 5466 5454 5443 5430 5417 5407 5395 5385 5375 5360 5342 5324 5309 5298 5288 5280 5274 5272 5267 5266 5263
5530 5546 5533 5508 5510 5540 5573 5579 5580 5544 5537 5543 5538 5527 5517 5504 5492 5494 5492 5489 5483 5473 5460 5449 5438 5425 5413 5403 5394 5384 5373 5356 5337 5321 5307 5294 5284 5275 5269 5260 5259 5261 5259 5251
5541 5526 5523 5535 5538 5520 5577 5570 5550 5543 5543 5532 5524 5515 5509 5500 5496 5492 5484 5475 5466 5455 5446 5436 5424 5412 5403 5394 5381 5368 5354 5337 5321 5306 5295 5284 5276 5269 5262 5255 5254 5257 5250 5243
5558 5558 5540 5542 5540 5565 5568 5563 5554 5542 5526 5519 5513 5508 5500 5491 5486 5479 5470 5459 5450 5441 5430 5421 5408 5399 5389 5374 5360 5344 5328 5314 5302 5292 5283 5274 5268 5265 5263 5258 5254 5248 5243 5234
5576 5577 5550 5554 5565 5560 5552 5544 5535 5527 5519 5512 5504 5497 5493 5482 5474 5464 5453 5442 5432 5421 5410 5401 5392 5382 5371 5359 5344 5329 5314 5301 5291 5281 5273 5266 5261 5261 5258 5253 5248 5242 5233 5226
5565 5567 5565 5550 5557 5543 5539 5532 5523 5514 5508 5500 5494 5487 5479 5469 5458 5446 5435 5425 5414 5403 5395 5385 5375 5366 5356 5343 5328 5315 5302 5291 5281 5272 5265 5259 5255 5253 5250 5247 5242 5237 5231 5225
5565 5555 5538 5527 5552 5544 5525 5514 5512 5505 5497 5491 5481 5472 5465 5450 5439 5429 5417 5406 5396 5388 5380 5371 5360 5349 5338 5327 5313 5300 5289 5279 5272 5265 5259 5254 5250 5245 5244 5240 5237 5233 5228 5223